TimeEDT,TemperatureF,Dew PointF,Humidity,Sea Level PressureIn,VisibilityMPH,Wind Direction,Wind SpeedMPH,Gust SpeedMPH,PrecipitationIn,Events,Conditions,WindDirDegrees,DateUTC
12:52 AM,55.0,52.0,89,30.19,10.0,South,4.6,-,N/A,,Clear,190,2013-05-08 04:52:00
1:52 AM,53.1,51.1,93,30.18,10.0,Calm,Calm,-,N/A,,Clear,0,2013-05-08 05:52:00
2:52 AM,52.0,50.0,93,30.17,10.0,Calm,Calm,-,N/A,,Clear,0,2013-05-08 06:52:00
3:52 AM,50.0,48.0,93,30.17,10.0,Calm,Calm,-,N/A,,Clear,0,2013-05-08 07:52:00
4:52 AM,48.9,46.9,93,30.18,10.0,Calm,Calm,-,N/A,,Clear,0,2013-05-08 08:52:00
5:52 AM,48.9,46.9,93,30.19,10.0,Calm,Calm,-,N/A,,Clear,0,2013-05-08 09:52:00
6:52 AM,50.0,48.0,93,30.21,10.0,Calm,Calm,-,N/A,,Scattered Clouds,0,2013-05-08 10:52:00
7:52 AM,57.9,52.0,81,30.22,10.0,Calm,Calm,-,N/A,,Clear,0,2013-05-08 11:52:00
8:52 AM,64.9,54.0,68,30.21,10.0,SSE,9.2,16.1,N/A,,Partly Cloudy,160,2013-05-08 12:52:00
9:52 AM,66.0,55.9,70,30.21,10.0,ESE,8.1,-,N/A,,Overcast,120,2013-05-08 13:52:00
10:30 AM,64.4,57.2,77,30.20,10.0,ESE,6.9,-,0.00,,Overcast,120,2013-05-08 14:30:00
10:52 AM,66.9,55.9,68,30.21,10.0,Variable,3.5,-,0.00,,Mostly Cloudy,0,2013-05-08 14:52:00
11:31 AM,69.8,55.4,60,30.19,10.0,South,10.4,-,N/A,,Mostly Cloudy,170,2013-05-08 15:31:00
11:52 AM,69.1,53.1,57,30.19,10.0,SE,9.2,19.6,N/A,,Mostly Cloudy,140,2013-05-08 15:52:00
12:52 PM,63.0,57.9,84,30.19,2.5,SE,4.6,-,0.05,Rain,Heavy Rain,140,2013-05-08 16:52:00
1:02 PM,64.4,59.0,83,30.17,9.0,Variable,3.5,-,0.01,Rain,Light Rain,0,2013-05-08 17:02:00
1:52 PM,64.0,57.0,78,30.18,10.0,Variable,4.6,-,0.01,,Mostly Cloudy,0,2013-05-08 17:52:00
2:35 PM,64.4,57.2,77,30.14,10.0,Variable,6.9,-,0.00,,Overcast,0,2013-05-08 18:35:00
2:45 PM,66.2,57.2,73,30.13,10.0,Variable,5.8,-,0.00,,Mostly Cloudy,0,2013-05-08 18:45:00
2:52 PM,66.0,57.0,73,30.15,10.0,Variable,3.5,-,0.00,,Mostly Cloudy,0,2013-05-08 18:52:00
3:44 PM,64.4,57.2,77,30.12,1.8,Variable,5.8,-,0.08,Rain,Heavy Rain,0,2013-05-08 19:44:00
3:49 PM,62.6,57.2,82,30.12,1.2,Variable,6.9,-,0.11,Rain,Heavy Rain,0,2013-05-08 19:49:00
3:52 PM,62.1,59.0,90,30.14,2.0,Variable,5.8,-,0.11,Rain,Light Rain,0,2013-05-08 19:52:00
3:56 PM,62.6,59.0,88,30.12,4.0,Variable,3.5,-,0.00,Rain,Light Rain,0,2013-05-08 19:56:00
4:52 PM,64.0,59.0,84,30.13,10.0,SE,5.8,-,0.02,,Overcast,130,2013-05-08 20:52:00
5:26 PM,62.6,59.0,88,30.11,6.0,Calm,Calm,-,0.01,Rain,Light Rain,0,2013-05-08 21:26:00
5:52 PM,63.0,59.0,87,30.12,10.0,Variable,4.6,-,0.01,,Overcast,0,2013-05-08 21:52:00
6:38 PM,62.6,59.0,88,30.09,4.0,ENE,3.5,-,0.02,Rain,Light Rain,70,2013-05-08 22:38:00
6:50 PM,60.8,59.0,94,30.09,1.8,Calm,Calm,-,0.08,Rain,Heavy Rain,0,2013-05-08 22:50:00
6:52 PM,61.0,59.0,93,30.11,1.5,Calm,Calm,-,0.09,Rain,Heavy Rain,0,2013-05-08 22:52:00
7:00 PM,60.8,59.0,94,30.09,1.5,Variable,3.5,-,0.05,Rain,Heavy Rain,0,2013-05-08 23:00:00
7:14 PM,60.8,57.2,88,30.09,1.5,South,10.4,-,0.16,Rain,Rain,170,2013-05-08 23:14:00
7:17 PM,60.8,59.0,94,30.09,1.0,SSE,4.6,-,0.21,Rain,Heavy Rain,160,2013-05-08 23:17:00
7:25 PM,60.8,59.0,94,30.09,1.0,South,4.6,-,0.28,Rain,Heavy Rain,180,2013-05-08 23:25:00
7:28 PM,60.8,59.0,94,30.09,1.5,Calm,Calm,-,0.29,Rain,Rain,0,2013-05-08 23:28:00
7:30 PM,60.8,59.0,94,30.09,2.5,Variable,5.8,-,0.29,Rain,Light Rain,0,2013-05-08 23:30:00
7:38 PM,60.8,59.0,94,30.09,10.0,Calm,Calm,-,0.29,Rain,Light Rain,0,2013-05-08 23:38:00
7:52 PM,61.0,59.0,93,30.10,10.0,Variable,3.5,-,0.29,,Overcast,0,2013-05-08 23:52:00
8:16 PM,60.8,59.0,94,30.08,1.8,Calm,Calm,-,0.10,Rain,Heavy Rain,0,2013-05-09 00:16:00
8:26 PM,60.8,59.0,94,30.08,1.5,Calm,Calm,-,0.23,Rain,Heavy Rain,0,2013-05-09 00:26:00
8:41 PM,60.8,59.0,94,30.08,2.0,Variable,5.8,-,0.34,Rain,Rain,0,2013-05-09 00:41:00
8:46 PM,60.8,59.0,94,30.08,3.0,Variable,4.6,-,0.34,Rain,Rain,0,2013-05-09 00:46:00
8:52 PM,61.0,57.9,90,30.09,6.0,SE,3.5,-,0.35,Rain,Light Rain,140,2013-05-09 00:52:00
9:04 PM,60.8,57.2,88,30.08,9.0,Calm,Calm,-,0.00,Rain,Light Rain,0,2013-05-09 01:04:00
9:12 PM,60.8,57.2,88,30.08,10.0,Variable,5.8,-,0.00,Rain,Light Rain,0,2013-05-09 01:12:00
9:44 PM,60.8,57.2,88,30.08,4.0,Calm,Calm,-,0.01,Rain,Light Rain,0,2013-05-09 01:44:00
9:52 PM,60.1,57.9,93,30.09,5.0,Variable,4.6,-,0.02,Rain,Light Rain,0,2013-05-09 01:52:00
10:33 PM,59.0,57.2,94,30.08,10.0,Calm,Calm,-,0.00,,Overcast,0,2013-05-09 02:33:00
10:52 PM,59.0,57.0,93,30.09,9.0,Variable,3.5,-,0.00,,Overcast,0,2013-05-09 02:52:00
11:52 PM,59.0,57.0,93,30.07,3.0,SE,3.5,-,0.03,Rain,Rain,130,2013-05-09 03:52:00